Home > Weather > Pittsburgh > Past weeks

Flag for USA Past Weather in Pittsburgh, Pennsylvania, USA — Yesterday and Last 2 Weeks

Now
81 °F

Broken clouds.


Feels Like: 82 °F
Forecast: 63 / 81 °F
Wind: 14 mph from Southwest

Location: Allegheny County Airport

Current Time: May 26, 2016 at 4:24:41 PM

Latest Report: May 26, 2016 at 3:53 PM


Visibility: 10 mi

Pressure: 30.05 "Hg

Humidity: 49%

Dew Point: 60 °F

Location of PittsburghLocation

Past Weather in Pittsburgh — Graph

°F

Pittsburgh Temperature Yesterday

Maximum temperature yesterday: 81 °F (at 3:53 PM)
Minimum temperature yesterday: 56 °F (at 5:53 AM)
Average temperature yesterday: 71 °F

High & Low Weather Summary for the Past Weeks

 TemperatureHumidityPressure
High81 °F (May 25, 3:53 PM)96% (May 23, 6:53 AM)30.26 "Hg (May 23, 6:53 AM)
Low36 °F (May 16, 5:53 AM)29% (May 16, 4:53 PM)29.70 "Hg (May 14, 11:00 AM)
Average58 °F65%30.05 "Hg
* Reported May 11 2:53 PM — May 26 2:53 PM, Pittsburgh, Weather by CustomWeather, © 2016

Note: Actual official high and low records may vary slightly from our data, if they occured in-between our weather recording intervals... More about our weather records

Advertising

Pittsburgh Weather History for the Previous 24 Hours

Scroll right to see more
 ConditionsComfort  
Time TempWeatherWind HumidityBarometerVisibility
2:53 PM
Thu, May 26
81 °FScattered clouds.17 mph51%30.06 "Hg10 mi
1:53 PM80 °FScattered clouds.9 mph52%30.06 "Hg10 mi
12:53 PM79 °FPassing clouds.10 mph56%30.07 "Hg10 mi
11:53 AM75 °FPassing clouds.13 mph64%30.07 "Hg10 mi
10:53 AM71 °FSunny.12 mph68%30.09 "Hg10 mi
9:53 AM69 °FOvercast.9 mph70%30.09 "Hg10 mi
8:53 AM68 °FOvercast.9 mph68%30.11 "Hg10 mi
7:53 AM68 °FBroken clouds.7 mph65%30.11 "Hg10 mi
6:53 AM65 °FOvercast.7 mph73%30.09 "Hg10 mi
5:53 AM67 °FOvercast.7 mph63%30.09 "Hg10 mi
4:53 AM67 °FPassing clouds.7 mph63%30.09 "Hg5 mi
3:53 AM67 °FClear.7 mph63%30.08 "Hg2 mi
2:53 AM67 °FOvercast.7 mph68%30.09 "Hg9 mi
1:53 AM68 °FOvercast.6 mph63%30.09 "Hg10 mi
12:53 AM68 °FPassing clouds.6 mph63%30.10 "Hg10 mi
11:53 PM
Wed, May 25
72 °FPassing clouds.3 mph52%30.11 "Hg10 mi
10:53 PM73 °FClear.6 mph50%30.12 "Hg10 mi
9:53 PM75 °FClear.6 mph45%30.10 "Hg10 mi
8:53 PM77 °FSunny.5 mph37%30.09 "Hg10 mi
7:53 PM78 °FSunny.5 mph36%30.11 "Hg10 mi
6:53 PM80 °FSunny.8 mph31%30.11 "Hg10 mi
5:53 PM81 °FSunny.8 mph32%30.11 "Hg10 mi
4:53 PM81 °FSunny.3 mph33%30.11 "Hg10 mi
Weather by CustomWeather, © 2016

See weather overviewHow to use our weather pages